[[{"header":{"parameterUnit":"m.s-1","parameterCategory":1,"la1":30.2991,"la2":30.254,"lo1":-89.0895,"lo2":-89.0444,"dy":0.0017,"dx":0.0017,"nx":28,"ny":28,"refTime":"2025-05-17T03:00:00:Z","depth":0,"parameterNumber":2,"parameterNumberName":"U-component_of_WINDS"},"data":[0,0,0,0,0,0,0,0,0,0,0,0,0,0,0,0,0,0,0,0,0,0,0,0,0,0,0,0,0,0,0,0,0,0,0,0,0,0,0,0,0,0,0,0,0,0,0,0,0,0,0,0,0,0,0,0,0,0,1.3348,1.335,0,1.3513,1.3515,1.3517,1.3568,1.3567,1.3566,1.3566,1.3737,1.3742,1.3747,0,0,0,0,0,0,0,0,0,0,0,0,0,1.3078,1.3083,1.3348,1.335,1.3352,1.3513,1.3515,1.3518,1.3568,1.3567,1.3566,1.3565,1.3735,1.3741,1.3748,0,0,0,0,0,0,0,0,0,0,0,0,0,1.3215,1.3085,1.3347,1.3397,1.3403,1.3513,1.3515,1.3518,1.3568,1.3567,1.3566,1.3565,1.3733,1.3741,1.3748,1.3822,0,0,1.3773,1.3776,0,0,0,0,0,0,0,0,1.3207,1.3225,1.3387,1.3393,1.34,1.3519,1.3483,1.362,1.3569,1.3506,1.3566,1.3564,1.3665,1.3679,1.3712,1.383,1.3837,1.3773,1.3778,1.3782,1.3784,0,0,0,0,0,0,0,1.3197,1.3218,1.3413,1.339,1.3398,1.3411,1.3429,1.3509,1.359,1.3511,1.3515,1.3534,1.3669,1.3705,1.3717,1.384,1.3773,1.378,1.3785,1.3788,1.4028,1.4029,0,0,0,0,0,0,1.3179,1.321,1.3408,1.3418,1.3299,1.3417,1.3437,1.3482,1.3589,1.3605,1.3535,1.3536,1.3692,1.3707,1.3723,1.3817,1.3782,1.3789,1.3794,1.4026,1.4028,1.403,0,0,0,0,0,0,1.3173,1.3197,1.3401,1.3315,1.3342,1.3423,1.3473,1.3486,1.3522,1.3607,1.3622,1.3556,1.3691,1.3712,1.3797,1.3824,1.3793,1.38,1.4024,1.4027,1.4029,1.4005,0,0,0,0,0,0,1.3165,1.3194,1.3222,1.3315,1.3347,1.3472,1.3475,1.349,1.3535,1.3538,1.3632,1.3646,1.3692,1.3785,1.3805,1.3834,1.3806,1.4022,1.4025,1.4028,1.4004,1.4007,1.4009,0,0,0,0,0,1.3156,1.3209,1.3223,1.3247,1.3383,1.3473,1.3491,1.3542,1.3537,1.3567,1.3622,1.3643,1.3818,1.3793,1.3816,1.3848,1.4021,1.4025,1.4028,1.4003,1.4006,1.4009,0,0,0,0,0,0,1.3117,1.3222,1.3239,1.3324,1.3389,1.3482,1.352,1.3544,1.3612,1.3612,1.3673,1.3694,1.3775,1.382,1.3791,1.3926,1.392,1.3929,1.3893,1.3897,1.3899,1.3887,1.3813,0,0,0,0,0,1.3118,1.3182,1.327,1.3337,1.3369,1.3439,1.348,1.3514,1.3584,1.3612,1.3673,1.3741,1.3812,1.3857,1.3926,1.4011,1.4033,1.4044,1.4047,1.4048,1.4055,1.4104,1.4111,1.4042,1.4042,1.4041,0,0,1.3121,1.3187,1.3223,1.3331,1.3385,1.3451,1.3462,1.353,1.358,1.3623,1.3707,1.3755,1.3835,1.392,1.3961,1.3961,1.4079,1.4053,1.4053,1.4059,1.4109,1.4115,1.4121,1.4044,1.4044,1.4043,0,0,1.3161,1.3216,1.3278,1.3333,1.3416,1.3462,1.3477,1.3566,1.36,1.3685,1.3719,1.378,1.3899,1.3955,1.3999,1.4062,1.4085,1.4083,1.4095,1.4143,1.4148,1.4153,1.4177,1.4184,1.4089,1.4089,1.4089,0,1.3154,1.3254,1.3307,1.3374,1.3421,1.3463,1.3527,1.3578,1.3679,1.3711,1.3709,1.3861,1.3917,1.4017,1.4033,1.4067,1.4087,1.4072,1.4143,1.4149,1.4154,1.4177,1.4186,1.4088,1.4088,1.4088,1.4088,0,1.3243,1.3311,1.3352,1.3448,1.35,1.3565,1.3629,1.3675,1.3705,1.3752,1.3839,1.3909,1.3994,1.402,1.405,1.4125,1.4122,1.4131,1.4126,1.4159,1.4182,1.4191,1.4087,1.4087,1.4088,1.4088,0,0,1.3261,1.3388,1.3402,1.3447,1.3542,1.3596,1.3664,1.3747,1.3786,1.3854,1.3914,1.4014,1.4023,1.4073,1.411,1.4151,1.4198,1.4155,1.4158,1.4161,1.4287,1.428,1.4289,1.4213,1.4215,1.4217,1.428,0,1.3313,1.3436,1.3486,1.3586,1.3651,1.3692,1.3752,1.3817,1.3863,1.3925,1.3977,1.4047,1.4053,1.4084,1.4127,1.4183,1.4224,1.4179,1.427,1.4273,1.4249,1.4301,1.4294,1.4351,1.4289,1.4291,1.4292,0,1.339,1.346,1.3565,1.3654,1.3683,1.3736,1.3817,1.3875,1.3951,1.3982,1.4038,1.4073,1.4147,1.4137,1.424,1.4209,1.4249,1.4283,1.4286,1.4297,1.4284,1.4314,1.437,1.4378,1.4306,1.4305,1.4304,0,1.3394,1.3515,1.3594,1.3631,1.3736,1.3772,1.3818,1.3892,1.3939,1.401,1.4041,1.412,1.4163,1.4224,1.4279,1.4267,1.4378,1.4372,1.4406,1.4405,1.4428,1.4426,1.4491,1.4453,1.4453,1.4452,1.4452,0,1.3448,1.3511,1.3597,1.3646,1.3718,1.3777,1.3847,1.3896,1.3962,1.4021,1.4062,1.4117,1.4187,1.4251,1.4295,1.4375,1.4394,1.4422,1.4433,1.4419,1.4415,1.4446,1.4444,1.4455,1.4454,1.4454,1.4453,0,1.3464,1.3524,1.3614,1.3706,1.3731,1.3781,1.3861,1.391,1.3958,1.4034,1.4055,1.4131,1.4209,1.427,1.4372,1.4401,1.4486,1.4498,1.446,1.4466,1.4497,1.4493,1.4585,1.4601,1.455,1.4551,1.4551,0,1.3494,1.3544,1.3642,1.3685,1.3731,1.3799,1.3848,1.3907,1.3956,1.4047,1.4086,1.4167,1.4235,1.4358,1.4423,1.4501,1.4516,1.4543,1.4528,1.4513,1.4518,1.4514,1.452,1.4544,1.4545,1.4545,1.4545,0,1.3542,1.357,1.3638,1.3717,1.3774,1.3839,1.3905,1.3938,1.401,1.4063,1.4144,1.4196,1.4301,1.4381,1.4467,1.4515,1.4543,1.4549,1.4562,1.4548,1.4524,1.4538,1.4466,1.4547,1.4547,1.4547,1.4547,1.4546,1.3567,1.3614,1.3691,1.3766,1.3822,1.3883,1.3935,1.399,1.4058,1.4147,1.4179,1.4262,1.4338,1.4456,1.4504,1.4571,1.4572,1.459,1.4594,1.4598,1.4597,1.4513,1.4587,1.4587,1.4587,1.4587,1.4587,0,1.3617,1.3669,1.3738,1.3829,1.3889,1.3909,1.3984,1.4033,1.4105,1.4174,1.424,1.4333,1.4412,1.4483,1.4566,1.4605,1.462,1.4625,1.4623,1.4634,1.459,1.4572,1.4612,1.4612,1.4612,1.4612,1.4612,1.4612,1.365,1.3731,1.3768,1.3878,1.393,1.4011,1.4052,1.411,1.4165,1.4267,1.4332,1.4378,1.4449,1.4537,1.461,1.4629,1.4658,1.466,1.4682,1.464,1.4637,1.4634,1.4617,1.4665,1.4665,1.4721,1.4721,1.4722]},{"header":{"parameterUnit":"m.s-1","parameterCategory":1,"la1":30.2991,"la2":30.254,"lo1":-89.0895,"lo2":-89.0444,"dy":0.0017,"dx":0.0017,"nx":28,"ny":28,"refTime":"2025-05-17T03:00:00:Z","depth":0,"parameterNumber":3,"parameterNumberName":"V-component_of_WINDS"},"data":[0,0,0,0,0,0,0,0,0,0,0,0,0,0,0,0,0,0,0,0,0,0,0,0,0,0,0,0,0,0,0,0,0,0,0,0,0,0,0,0,0,0,0,0,0,0,0,0,0,0,0,0,0,0,0,0,0,0,4.8039,4.8039,0,4.808,4.8081,4.8081,4.8064,4.8063,4.8063,4.8062,4.8098,4.81,4.8102,0,0,0,0,0,0,0,0,0,0,0,0,0,4.7941,4.7943,4.8039,4.8039,4.804,4.808,4.8081,4.8081,4.8065,4.8063,4.8062,4.8061,4.8098,4.81,4.8102,0,0,0,0,0,0,0,0,0,0,0,0,0,4.7983,4.7943,4.8039,4.8037,4.8037,4.808,4.8081,4.8082,4.8065,4.8063,4.8062,4.8061,4.8097,4.81,4.8102,4.8148,0,0,4.8111,4.8112,0,0,0,0,0,0,0,0,4.798,4.7986,4.8036,4.8037,4.8037,4.8066,4.806,4.8104,4.8065,4.8054,4.8062,4.806,4.8088,4.8092,4.8102,4.815,4.8152,4.8111,4.8113,4.8114,4.8115,0,0,0,0,0,0,0,4.7978,4.7984,4.8055,4.8037,4.8038,4.8032,4.8036,4.8068,4.8078,4.8055,4.8054,4.8059,4.8088,4.81,4.8103,4.8152,4.8111,4.8114,4.8115,4.8116,4.8242,4.8244,0,0,0,0,0,0,4.7975,4.7982,4.8054,4.8056,4.8005,4.8035,4.804,4.8058,4.8078,4.808,4.806,4.8058,4.8096,4.81,4.8104,4.8161,4.8114,4.8117,4.8118,4.824,4.8242,4.8244,0,0,0,0,0,0,4.7973,4.7982,4.8052,4.8019,4.8028,4.8038,4.8059,4.806,4.8071,4.8082,4.8084,4.8071,4.8095,4.81,4.8139,4.8162,4.8118,4.812,4.8238,4.8241,4.8243,4.8275,0,0,0,0,0,0,4.7971,4.7981,4.8,4.802,4.803,4.8087,4.806,4.8061,4.8077,4.8075,4.8092,4.8094,4.8094,4.8134,4.8141,4.8165,4.8123,4.8236,4.824,4.8242,4.8272,4.8278,4.8283,0,0,0,0,0,4.7967,4.8005,4.8001,4.8009,4.8053,4.8088,4.8094,4.8095,4.8079,4.8097,4.8105,4.8093,4.8159,4.8139,4.8146,4.8171,4.8235,4.8239,4.8242,4.8269,4.8277,4.8283,0,0,0,0,0,0,4.7985,4.8008,4.8003,4.8049,4.8067,4.8086,4.8108,4.8103,4.8124,4.8121,4.8119,4.8123,4.8163,4.8171,4.8148,4.8218,4.8194,4.8199,4.8212,4.8219,4.8225,4.8223,4.8125,0,0,0,0,0,4.7994,4.8023,4.804,4.8079,4.8089,4.8097,4.8113,4.8112,4.813,4.8137,4.8147,4.8164,4.8188,4.8204,4.8227,4.8273,4.8277,4.8294,4.83,4.8304,4.8309,4.8336,4.8344,4.8256,4.8256,4.8256,0,0,4.8013,4.803,4.8047,4.8083,4.8097,4.8126,4.8104,4.8134,4.8155,4.8141,4.8179,4.8187,4.8205,4.8248,4.8267,4.8255,4.8334,4.8309,4.8313,4.8315,4.834,4.8349,4.8356,4.8259,4.8258,4.8258,0,0,4.8064,4.8079,4.8114,4.813,4.8152,4.8158,4.8167,4.8187,4.8192,4.8231,4.8221,4.8245,4.8287,4.8301,4.8313,4.8372,4.8363,4.8379,4.841,4.8436,4.8443,4.8449,4.8471,4.8479,4.8384,4.8384,4.8384,0,4.8084,4.8129,4.8132,4.8165,4.8181,4.8173,4.8208,4.8222,4.825,4.8261,4.8248,4.8302,4.8313,4.836,4.8375,4.8385,4.8394,4.8377,4.8442,4.8448,4.8454,4.8475,4.8483,4.8386,4.8386,4.8385,4.8385,0,4.8154,4.8185,4.821,4.8242,4.826,4.8294,4.8301,4.832,4.8318,4.8325,4.8365,4.8379,4.8405,4.8416,4.8413,4.8463,4.8455,4.8442,4.8418,4.8464,4.8484,4.8492,4.8389,4.8388,4.8387,4.8387,0,0,4.8215,4.825,4.8259,4.8274,4.83,4.8323,4.8356,4.8385,4.8402,4.8421,4.8449,4.8486,4.8475,4.8489,4.8488,4.8511,4.8558,4.8495,4.8495,4.8507,4.8615,4.8626,4.8635,4.8552,4.8554,4.8555,4.8614,0,4.8268,4.833,4.8335,4.8389,4.8419,4.8412,4.8441,4.8459,4.8467,4.8492,4.8499,4.8526,4.8508,4.8517,4.8539,4.8548,4.858,4.8543,4.8577,4.8579,4.8574,4.8645,4.8656,4.8711,4.8622,4.8623,4.8624,0,4.8338,4.8365,4.8423,4.8448,4.846,4.8486,4.8514,4.8538,4.8558,4.8562,4.858,4.8577,4.861,4.8585,4.8631,4.8606,4.862,4.8627,4.8629,4.8632,4.8605,4.8652,4.8729,4.8738,4.8636,4.8635,4.8634,0,4.8379,4.8428,4.8471,4.8483,4.8512,4.8531,4.8543,4.8563,4.8581,4.8604,4.8615,4.8641,4.8656,4.8675,4.8679,4.866,4.8725,4.87,4.8729,4.873,4.8744,4.8743,4.8825,4.8751,4.8751,4.8751,4.8751,0,4.8439,4.8475,4.849,4.8516,4.8556,4.8561,4.8601,4.8611,4.8629,4.8657,4.8651,4.8676,4.8679,4.8704,4.8707,4.8746,4.8751,4.8755,4.8756,4.8756,4.8756,4.8766,4.8763,4.8753,4.8753,4.8752,4.8752,0,4.8491,4.8502,4.8548,4.8573,4.858,4.8609,4.8629,4.8654,4.8662,4.8696,4.8705,4.8716,4.8747,4.8752,4.8786,4.8788,4.8835,4.8831,4.8829,4.8829,4.8858,4.8856,4.895,4.8964,4.888,4.8881,4.8882,0,4.8528,4.8557,4.8586,4.8606,4.862,4.8651,4.867,4.8676,4.8695,4.8723,4.8744,4.8774,4.8799,4.8847,4.8858,4.8885,4.8881,4.8913,4.8885,4.8886,4.8883,4.8882,4.8886,4.8918,4.8919,4.892,4.892,0,4.8595,4.86,4.8629,4.8661,4.8685,4.8709,4.8732,4.8748,4.8757,4.8779,4.8812,4.8831,4.8868,4.8899,4.8926,4.8937,4.893,4.8929,4.8938,4.8939,4.8938,4.894,4.8845,4.8927,4.8926,4.8926,4.8925,4.8925,4.8642,4.8668,4.8694,4.8727,4.8746,4.8768,4.8794,4.8806,4.8834,4.8867,4.8868,4.8904,4.8925,4.8961,4.8974,4.9002,4.8991,4.9003,4.9006,4.9009,4.9013,4.8933,4.9006,4.9006,4.9006,4.9006,4.9005,0,4.8709,4.8726,4.8757,4.8792,4.8818,4.8812,4.8838,4.886,4.8893,4.8914,4.894,4.8978,4.9007,4.9021,4.905,4.907,4.9067,4.9077,4.9076,4.9079,4.902,4.901,4.9079,4.9079,4.9079,4.9079,4.9079,4.9079,4.8747,4.8792,4.8801,4.8855,4.8871,4.8908,4.8924,4.8944,4.8962,4.9006,4.9032,4.9042,4.906,4.9091,4.9118,4.9121,4.9133,4.9144,4.9146,4.909,4.9083,4.9076,4.9067,4.9146,4.9146,4.9203,4.9204,4.9204]}]]